| time (UTC) | temp F | wind direction | speed MPH | gust MPH | rain 1hr in | rain 24hr in | rain mn in | humidity % | barometer mb |
| 20260902173001 | 71 | 345 | 1.0 | 8.0 | 0.00 | 0.00 | 0.00 | 98 | 1021.0 |
| 20260902171502 | 71 | 62 | 2.0 | 5.0 | 0.00 | 0.00 | 0.00 | 98 | 1020.8 |
| 20260902170005 | 71 | 94 | 2.0 | 5.0 | 0.00 | 0.00 | 0.00 | 98 | 1020.4 |
| 20260902164501 | 72 | 115 | 2.0 | 5.0 | 0.00 | 0.00 | 0.00 | 98 | 1020.4 |
| 20260902161500 | 71 | 135 | 3.0 | 6.0 | 0.00 | 0.00 | 0.00 | 98 | 1019.6 |
| 20260902160007 | 72 | 141 | 3.0 | 7.0 | 0.00 | 0.00 | 0.00 | 98 | 1019.7 |
| 20260902154502 | 71 | 150 | 3.0 | 8.0 | 0.00 | 0.00 | 0.00 | 98 | 1019.6 |
| 20260902153000 | 71 | 214 | 2.0 | 6.0 | 0.00 | 0.00 | 0.00 | 98 | 1019.5 |
| 20260902151500 | 71 | 184 | 3.0 | 7.0 | 0.00 | 0.00 | 0.00 | 98 | 1019.7 |
| 20260902144501 | 71 | 193 | 2.0 | 5.0 | 0.00 | 0.00 | 0.00 | 99 | 1020.0 |
| 20260902141502 | 71 | 160 | 2.0 | 6.0 | 0.00 | 0.00 | 0.00 | 99 | 1019.8 |
| 20260902140004 | 70 | 210 | 3.0 | 8.0 | 0.00 | 0.00 | 0.00 | 99 | 1019.6 |
| 20260902134500 | 70 | 184 | 4.0 | 7.0 | 0.00 | 0.00 | 0.00 | 99 | 1019.1 |
| 20260902133000 | 70 | 150 | 3.0 | 7.0 | 0.00 | 0.00 | 0.00 | 99 | 1019.2 |
| 20260902131501 | 70 | 141 | 4.0 | 9.0 | 0.00 | 0.00 | 0.00 | 99 | 1019.1 |
| 20260902125948 | 70 | 131 | 3.0 | 9.0 | 0.00 | 0.00 | 0.00 | 99 | 1018.9 |
| 20260902124445 | 70 | 160 | 3.0 | 5.0 | 0.00 | 0.00 | 0.00 | 99 | 1019.0 |
| 20260902122946 | 70 | 217 | 2.0 | 7.0 | 0.00 | 0.00 | 0.00 | 99 | 1019.0 |
| 20260902121445 | 70 | 128 | 2.0 | 6.0 | 0.00 | 0.00 | 0.00 | 99 | 1018.8 |
| 20260902115948 | 70 | 148 | 3.0 | 6.0 | 0.00 | 0.00 | 0.00 | 99 | 1018.6 |
| 20260902112945 | 70 | 161 | 3.0 | 6.0 | 0.00 | 0.00 | 0.00 | 99 | 1018.5 |
| 20260902111445 | 70 | 157 | 2.0 | 6.0 | 0.00 | 0.00 | 0.00 | 99 | 1018.3 |
| 20260902105948 | 70 | 148 | 1.0 | 4.0 | 0.00 | 0.00 | 0.00 | 99 | 1018.4 |
| 20260902104445 | 70 | 154 | 1.0 | 3.0 | 0.00 | 0.00 | 0.00 | 99 | 1018.3 |
| 20260902102945 | 70 | 149 | 1.0 | 2.0 | 0.00 | 0.00 | 0.00 | 99 | 1018.3 |
| 20260902101445 | 70 | 154 | 1.0 | 2.0 | 0.00 | 0.00 | 0.00 | 99 | 1018.3 |
| 20260902095948 | 70 | 132 | 0.0 | 1.0 | 0.00 | 0.00 | 0.00 | 99 | 1018.2 |
| 20260902094445 | 70 | 131 | 0.0 | 1.0 | 0.00 | 0.00 | 0.00 | 99 | 1018.1 |
| 20260902092945 | 70 | 132 | 0.0 | 1.0 | 0.00 | 0.00 | 0.00 | 99 | 1018.0 |
| 20260902091446 | 70 | 132 | 0.0 | 1.0 | 0.00 | 0.00 | 0.00 | 99 | 1017.9 |
| 20260902084447 | 70 | 137 | 0.0 | 1.0 | 0.00 | 0.00 | 0.00 | 99 | 1017.8 |
| 20260902082945 | 70 | 137 | 0.0 | 1.0 | 0.00 | 0.00 | 0.00 | 99 | 1017.8 |
| 20260902081446 | 70 | 137 | 0.0 | 1.0 | 0.00 | 0.00 | 0.00 | 99 | 1017.7 |
| 20260902075949 | 69 | 137 | 0.0 | 1.0 | 0.00 | 0.00 | 0.00 | 99 | 1017.7 |
| 20260902074447 | 69 | 138 | 0.0 | 1.0 | 0.00 | 0.00 | 0.00 | 99 | 1017.4 |
| 20260902072946 | 69 | 138 | 0.0 | 1.0 | 0.00 | 0.00 | 0.00 | 99 | 1017.3 |
| 20260902071446 | 69 | 138 | 0.0 | 1.0 | 0.00 | 0.00 | 0.00 | 99 | 1017.2 |
| 20260902065949 | 69 | 136 | 0.0 | 1.0 | 0.00 | 0.00 | 0.00 | 99 | 1017.2 |
| 20260902064445 | 69 | 136 | 0.0 | 1.0 | 0.00 | 0.00 | 0.00 | 99 | 1017.0 |
| 20260901235950 | 83 | 314 | 1.0 | 6.0 | 0.00 | 0.00 | 0.00 | 78 | 1013.5 |
| 20260901234446 | 83 | 297 | 2.0 | 9.0 | 0.00 | 0.00 | 0.00 | 79 | 1012.9 |
| 20260901232947 | 84 | 311 | 2.0 | 5.0 | 0.00 | 0.00 | 0.00 | 79 | 1012.9 |
| 20260901231446 | 84 | 287 | 1.0 | 3.0 | 0.00 | 0.00 | 0.00 | 80 | 1013.8 |
| 20260901225949 | 85 | 274 | 1.0 | 4.0 | 0.00 | 0.00 | 0.00 | 78 | 1013.6 |
| 20260901222946 | 87 | 285 | 0.0 | 2.0 | 0.00 | 0.00 | 0.00 | 74 | 1013.9 |
| 20260901221446 | 88 | 293 | 1.0 | 5.0 | 0.00 | 0.00 | 0.00 | 74 | 1013.6 |
| 20260901215949 | 88 | 301 | 1.0 | 3.0 | 0.00 | 0.00 | 0.00 | 72 | 1013.7 |
| 20260901214446 | 89 | 294 | 2.0 | 4.0 | 0.00 | 0.00 | 0.00 | 70 | 1013.8 |
| 20260901212946 | 89 | 313 | 3.0 | 8.0 | 0.00 | 0.00 | 0.00 | 70 | 1013.9 |
| 20260901211446 | 90 | 305 | 3.0 | 7.0 | 0.00 | 0.00 | 0.00 | 70 | 1013.8 |
| 20260901205950 | 90 | 299 | 2.0 | 7.0 | 0.00 | 0.00 | 0.00 | 72 | 1014.0 |
| 20260901204447 | 90 | 300 | 2.0 | 6.0 | 0.00 | 0.00 | 0.00 | 69 | 1014.1 |
| 20260901202946 | 89 | 314 | 1.0 | 6.0 | 0.00 | 0.00 | 0.00 | 73 | 1014.2 |
| 20260901195949 | 89 | 298 | 2.0 | 8.0 | 0.00 | 0.00 | 0.00 | 71 | 1014.5 |
| 20260901194445 | 91 | 322 | 2.0 | 8.0 | 0.00 | 0.00 | 0.00 | 71 | 1014.5 |
| 20260901192946 | 89 | 296 | 3.0 | 10.0 | 0.00 | 0.00 | 0.00 | 70 | 1014.7 |
| 20260901191446 | 89 | 292 | 3.0 | 9.0 | 0.00 | 0.00 | 0.00 | 70 | 1014.8 |
| 20260901185950 | 89 | 330 | 2.0 | 5.0 | 0.00 | 0.00 | 0.00 | 72 | 1014.9 |
| 20260901184445 | 88 | 266 | 3.0 | 8.0 | 0.00 | 0.00 | 0.00 | 69 | 1015.2 |
| 20260901182945 | 87 | 321 | 4.0 | 9.0 | 0.00 | 0.00 | 0.00 | 71 | 1015.2 |
| 20260901181446 | 88 | 299 | 3.0 | 7.0 | 0.00 | 0.00 | 0.00 | 72 | 1015.1 |
| 20260901175950 | 88 | 301 | 3.0 | 10.0 | 0.00 | 0.00 | 0.00 | 72 | 1015.2 |